TimeAKST,TemperatureF,Dew PointF,Humidity,Sea Level PressureIn,VisibilityMPH,Wind Direction,Wind SpeedMPH,Gust SpeedMPH,PrecipitationIn,Events,Conditions,WindDirDegrees,DateUTC
12:43 AM,44.1,44.1,100,29.99,10.0,Calm,Calm,-,0.01,Rain,Light Rain,0,2013-11-13 09:43:00
12:53 AM,44.1,44.1,100,30.00,10.0,Calm,Calm,-,0.01,,Overcast,0,2013-11-13 09:53:00
1:53 AM,44.1,44.1,100,30.02,4.0,SE,3.5,-,N/A,,Overcast,130,2013-11-13 10:53:00
2:19 AM,44.1,44.1,100,30.03,5.0,SE,4.6,-,N/A,,Overcast,140,2013-11-13 11:19:00
2:43 AM,44.1,44.1,100,30.04,6.0,SE,5.8,-,N/A,,Overcast,140,2013-11-13 11:43:00
2:53 AM,44.1,44.1,100,30.05,4.0,SE,5.8,-,N/A,,Overcast,140,2013-11-13 11:53:00
3:40 AM,44.1,44.1,100,30.06,2.0,ESE,6.9,-,N/A,,Overcast,120,2013-11-13 12:40:00
3:53 AM,44.1,44.1,100,30.07,3.0,SE,4.6,-,N/A,,Overcast,140,2013-11-13 12:53:00
4:43 AM,45.0,45.0,100,30.07,1.8,ESE,4.6,-,N/A,,Overcast,120,2013-11-13 13:43:00
4:53 AM,45.0,45.0,100,30.08,1.2,ESE,4.6,-,N/A,,Overcast,120,2013-11-13 13:53:00
5:35 AM,45.0,45.0,100,30.09,3.0,SE,3.5,-,0.01,Rain,Light Rain,140,2013-11-13 14:35:00
5:53 AM,45.0,45.0,100,30.09,10.0,Calm,Calm,-,0.01,,Overcast,0,2013-11-13 14:53:00
6:23 AM,46.0,46.0,100,30.10,2.5,South,3.5,-,N/A,,Overcast,170,2013-11-13 15:23:00
6:31 AM,46.0,46.0,100,30.10,5.0,Calm,Calm,-,N/A,,Overcast,0,2013-11-13 15:31:00
6:49 AM,46.4,46.4,100,30.10,2.5,Calm,Calm,-,N/A,,Overcast,0,2013-11-13 15:49:00
6:53 AM,45.0,45.0,100,30.11,2.0,Calm,Calm,-,N/A,,Overcast,0,2013-11-13 15:53:00
7:00 AM,45.0,45.0,100,30.11,1.0,Calm,Calm,-,N/A,,Overcast,0,2013-11-13 16:00:00
7:44 AM,46.0,46.0,100,30.13,1.5,Calm,Calm,-,N/A,,Overcast,0,2013-11-13 16:44:00
7:53 AM,45.0,45.0,100,30.14,1.8,Calm,Calm,-,0.01,Rain,Light Rain,0,2013-11-13 16:53:00
8:05 AM,46.0,46.0,100,30.13,1.8,Variable,4.6,-,0.01,Rain,Light Rain,0,2013-11-13 17:05:00
8:10 AM,46.0,46.0,100,30.13,3.0,Calm,Calm,-,0.02,Rain,Rain,0,2013-11-13 17:10:00
8:18 AM,46.0,46.0,100,30.12,2.5,NNE,3.5,-,0.05,Rain,Rain,20,2013-11-13 17:18:00
8:23 AM,46.0,46.0,100,30.12,5.0,NE,4.6,-,0.05,Rain,Light Rain,40,2013-11-13 17:23:00
8:53 AM,46.0,46.0,100,30.14,10.0,SSW,3.5,-,0.05,,Mostly Cloudy,200,2013-11-13 17:53:00
9:53 AM,46.9,46.0,97,30.16,10.0,Calm,Calm,-,N/A,,Overcast,0,2013-11-13 18:53:00
10:53 AM,46.9,46.0,97,30.17,10.0,ESE,3.5,-,N/A,,Overcast,120,2013-11-13 19:53:00
11:35 AM,48.0,46.9,96,30.17,10.0,Calm,Calm,-,N/A,,Overcast,0,2013-11-13 20:35:00
11:42 AM,48.0,46.9,96,30.17,6.0,WSW,4.6,-,0.00,Rain,Light Rain,250,2013-11-13 20:42:00
11:51 AM,46.4,46.4,100,30.17,2.5,Calm,Calm,-,0.01,Rain,Light Rain,0,2013-11-13 20:51:00
11:53 AM,48.0,46.0,93,30.18,2.5,Calm,Calm,-,0.01,Rain,Light Rain,0,2013-11-13 20:53:00
12:00 PM,48.0,46.0,93,30.17,8.0,Calm,Calm,-,0.00,Rain,Light Rain,0,2013-11-13 21:00:00
12:53 PM,48.0,46.0,93,30.19,10.0,Calm,Calm,-,0.00,,Clear,0,2013-11-13 21:53:00
1:36 PM,48.0,45.0,89,30.19,10.0,Variable,4.6,-,N/A,,Overcast,0,2013-11-13 22:36:00
1:53 PM,46.9,45.0,93,30.20,10.0,Calm,Calm,-,N/A,,Overcast,0,2013-11-13 22:53:00
2:00 PM,46.9,45.0,93,30.20,10.0,Variable,3.5,-,N/A,,Overcast,0,2013-11-13 23:00:00
2:53 PM,46.0,44.1,93,30.21,10.0,WNW,4.6,-,N/A,,Mostly Cloudy,300,2013-11-13 23:53:00
3:53 PM,46.0,44.1,93,30.22,10.0,NNW,4.6,-,N/A,,Overcast,330,2013-11-14 00:53:00
4:53 PM,43.0,43.0,100,30.23,10.0,NNW,3.5,-,N/A,,Partly Cloudy,330,2013-11-14 01:53:00
5:53 PM,41.0,39.9,96,30.25,10.0,NNW,4.6,-,N/A,,Clear,340,2013-11-14 02:53:00
6:53 PM,42.1,41.0,96,30.24,10.0,North,4.6,-,N/A,,Partly Cloudy,350,2013-11-14 03:53:00
7:53 PM,37.9,37.0,97,30.25,4.0,Calm,Calm,-,N/A,,Clear,0,2013-11-14 04:53:00
8:53 PM,37.0,37.0,100,30.26,10.0,Calm,Calm,-,N/A,,Overcast,0,2013-11-14 05:53:00
9:53 PM,37.9,37.9,100,30.27,10.0,Calm,Calm,-,N/A,,Overcast,0,2013-11-14 06:53:00
10:53 PM,39.0,39.0,100,30.28,10.0,Calm,Calm,-,N/A,,Overcast,0,2013-11-14 07:53:00
11:53 PM,37.9,37.9,100,30.28,10.0,Calm,Calm,-,N/A,,Overcast,0,2013-11-14 08:53:00